TimePDT,TemperatureF,Dew PointF,Humidity,Sea Level PressureIn,VisibilityMPH,Wind Direction,Wind SpeedMPH,Gust SpeedMPH,PrecipitationIn,Events,Conditions,WindDirDegrees,DateUTC
12:50 AM,64.9,17.1,16,29.91,10.0,WSW,18.4,-,N/A,,Clear,240,2013-03-19 07:50:00
1:50 AM,66.0,15.1,14,29.88,10.0,WSW,23.0,32.2,N/A,,Clear,240,2013-03-19 08:50:00
3:50 AM,64.0,26.1,24,29.89,10.0,WSW,31.1,39.1,N/A,,Clear,250,2013-03-19 10:50:00
4:50 AM,63.0,26.1,25,29.89,10.0,WSW,24.2,33.4,N/A,,Clear,240,2013-03-19 11:50:00
5:50 AM,63.0,24.1,23,29.93,10.0,West,20.7,28.8,N/A,,Clear,270,2013-03-19 12:50:00
6:50 AM,62.1,25.0,24,29.94,10.0,West,21.9,29.9,N/A,,Clear,260,2013-03-19 13:50:00
7:50 AM,62.1,26.1,25,29.99,10.0,West,19.6,-,N/A,,Clear,260,2013-03-19 14:50:00
8:50 AM,64.9,27.0,24,30.00,10.0,West,21.9,-,N/A,,Clear,270,2013-03-19 15:50:00
9:50 AM,68.0,27.0,21,30.02,10.0,West,20.7,-,N/A,,Clear,280,2013-03-19 16:50:00
10:50 AM,71.1,27.0,19,30.01,10.0,West,13.8,-,N/A,,Clear,270,2013-03-19 17:50:00
11:50 AM,73.9,27.0,18,29.99,10.0,WNW,11.5,-,N/A,,Clear,290,2013-03-19 18:50:00
12:50 PM,75.9,21.9,13,29.99,10.0,NW,6.9,-,N/A,,Clear,310,2013-03-19 19:50:00
1:50 PM,77.0,21.9,13,29.96,10.0,Calm,Calm,-,N/A,,Clear,0,2013-03-19 20:50:00
2:50 PM,79.0,19.9,11,29.94,10.0,North,3.5,-,N/A,,Clear,350,2013-03-19 21:50:00
3:50 PM,80.1,19.9,11,29.93,10.0,NE,8.1,-,N/A,,Clear,50,2013-03-19 22:50:00
4:50 PM,79.0,19.9,11,29.92,10.0,Variable,4.6,-,N/A,,Clear,0,2013-03-19 23:50:00
5:50 PM,79.0,21.0,12,29.92,10.0,Variable,5.8,-,N/A,,Clear,0,2013-03-20 00:50:00
6:50 PM,75.0,21.0,13,29.92,10.0,East,4.6,-,N/A,,Clear,100,2013-03-20 01:50:00
7:50 PM,75.0,23.0,14,29.94,10.0,WSW,18.4,29.9,N/A,,Clear,240,2013-03-20 02:50:00
8:06 PM,73.4,28.4,19,30.01,10.0,West,12.7,24.2,N/A,,Clear,280,2013-03-20 03:06:00
8:50 PM,71.1,30.0,22,29.98,10.0,West,17.3,27.6,N/A,,Clear,260,2013-03-20 03:50:00
9:50 PM,69.1,32.0,25,30.00,10.0,WSW,15.0,-,N/A,,Clear,250,2013-03-20 04:50:00
10:50 PM,68.0,32.0,26,30.00,10.0,WSW,8.1,-,N/A,,Clear,250,2013-03-20 05:50:00
11:50 PM,68.0,33.1,27,30.00,10.0,West,11.5,-,N/A,,Clear,260,2013-03-20 06:50:00